Regional Weather Roundup
Issued by NWS

Home | Current Version | Previous Version | Text Only | Print | Product List | Glossary Off
Versions: 1 2 3 4 5 6 7 8 9 10 11 12 13 14 15 16 17 18 19 20 21 22 23 24 25 26 27 28 29 30 31 32 33 34 35 36 37 38 39 40 41 42 43 44 45 46 47 48 49 50

000
ASUS43 KDMX 010807
RWRIA

WEATHER ROUNDUP FOR IOWA
NATIONAL WEATHER SERVICE DES MOINES IA
300 AM CDT TUE SEP 01 2015

NOTE: "FAIR" INDICATES FEW OR NO CLOUDS BELOW 12,000 FEET WITH NO
SIGNIFICANT WEATHER AND/OR OBSTRUCTIONS TO VISIBILITY.

* - THESE STATIONS ARE NOT NWS STATIONS...THUS NOT UNDER NWS
QUALITY CONTROL.  THEY ALSO DO NOT REPORT WEATHER SUCH
AS PRECIPITATION OR FOG.

IAZ001>003-012>014-020>022-031>034-043>046-010900-
   NORTHWEST IOWA

CITY           SKY/WX    TMP DP  RH WIND       PRES   REMARKS
CARROLL *      CLOUDY    63  63 100 S7        29.94S FOG
CHEROKEE *     CLEAR     64  64 100 CALM      29.92S FOG
DENISON *      CLEAR     70  68  94 CALM      29.92S
LE MARS *        N/A     66  66 100 CALM      29.92S
ORANGE CITY *  CLEAR     70  66  88 S3        29.92S
SHELDON *      CLEAR     66  64  94 S5        29.91S
SIOUX CITY     CLEAR     68  64  87 E9        29.90S
SPENCER        CLEAR     64  61  90 CALM      29.93F
STORM LAKE *   CLEAR     66  66 100 S6        29.95R
$$

IAZ055>058-069>071-079>083-090>094-010900-
   SOUTHWEST IOWA

CITY           SKY/WX    TMP DP  RH WIND       PRES   REMARKS
ATLANTIC *     CLEAR     68  66  94 S5        29.95S
AUDUBON *      CLEAR     66  64  94 CALM      29.96S FOG
CLARINDA *     CLEAR     64  64 100 CALM      29.97S
COUNCIL BLFS * CLEAR     73  68  83 S9        29.94S
CRESTON *      CLEAR     70  68  94 S8        29.99S
LAMONI         CLEAR     72  68  87 S9        29.98F
RED OAK *      CLEAR     68  68 100 CALM      29.95S
SHENANDOAH *   CLEAR     70  68  94 SE5       29.95S
$$

IAZ047>049-059>061-072>074-084-010900-
   CENTRAL IOWA

CITY           SKY/WX    TMP DP  RH WIND       PRES   REMARKS
AMES           FOG       66  66 100 CALM      29.95S VSB 1/4
ANKENY *       FOG       70  70 100 CALM      29.95S VSB 3/4
CHARITON *     PTCLDY    72  68  88 S7        29.98S
DES MOINES     CLEAR     73  67  81 S9        29.95S
GRINNELL*      PTCLDY    70  66  88 S7        29.98F
KNOXVILLE *    CLEAR     72  68  88 S7        29.96F
MARSHALLTOWN   PTCLDY    69  67  93 SE6       29.96S
PELLA *        CLEAR     72  72 100 S3        29.98F
PERRY *          N/A     66  66 100 SE3       29.95S FOG
$$

IAZ004>006-015-016-023>025-035-036-010900-
   NORTH CENTRAL IOWA

CITY           SKY/WX    TMP DP  RH WIND       PRES   REMARKS
ALGONA *       PTCLDY    68  66  94 S6        29.94S
CLARION *      CLEAR     68  66  94 SE7       29.95S FOG
ESTHERVILLE    CLEAR     62  61  96 S3        29.93F FOG
FORT DODGE *   CLEAR     66  63  88 CALM      29.95S
MASON CITY     FOG       64  64 100 S6        29.97S VSB 1/4
FOREST CITY *  FOG       63  63 100 CALM      29.96S VSB 0
IOWA FALLS *   MOCLDY    68  66  94 SE3       29.97S FOG
$$

IAZ007>011-017>019-026>030-037>042-050>054-066-010900-
   NORTHEAST IOWA

CITY           SKY/WX    TMP DP  RH WIND       PRES   REMARKS
CEDAR RAPIDS   PTCLDY    70  70 100 S5        29.98S FOG
CHARLES CITY * FOG       70  70 100 S6        29.97S VSB 1
CLINTON *      CLEAR     72  70  94 S5        30.02S
DECORAH *      MOCLDY    72  72 100 S6        29.96F
DUBUQUE        CLEAR     71  69  93 S8        30.00F FOG
MONTICELLO *   CLEAR     70  70 100 S5        29.98F FOG
OELWEIN *        N/A     70  70 100 S6        29.98F FOG
WATERLOO       CLEAR     70  69  97 S5        29.95F FOG
$$

IAZ064-065-067-068-078-010900-
   EAST CENTRAL IOWA

CITY           SKY/WX    TMP DP  RH WIND       PRES   REMARKS
DAVENPORT      CLEAR     73  70  90 S7        30.00F
IOWA CITY      CLEAR     70  69  97 CALM      29.99S FOG
MT. PLEASANT * CLEAR     72  68  88 S5        30.00S FOG
MUSCATINE *    PTCLDY    73  70  88 S6        29.99S
QUAD CITIES    CLEAR     74  70  87 S5        29.99F
$$

IAZ062-063-075>077-085>089-095>099-010900-
   SOUTHEAST IOWA

CITY           SKY/WX    TMP DP  RH WIND       PRES   REMARKS
BURLINGTON     CLEAR     73  72  96 S6        30.00F
FAIRFIELD *    CLEAR     72  68  88 S7        29.99S
FORT MADISON * CLEAR     73  73 100 S6        30.01F
KEOKUK *       CLEAR     75  72  88 SW7       30.00S
OSKALOOSA *      N/A     68  68 100 S5        29.99S
CENTERVILLE *  CLEAR     70  68  94 SW5       30.01S
OTTUMWA        CLEAR     70  68  93 S7        29.97F
WASHINGTON *     N/A    N/A N/A N/A MISG        N/A
$$

ABBREVIATIONS USED IN REMARKS
   TC - TEMPERATURES IN CELSIUS
  WCI - WIND CHILL INDEX
   HX - HEAT INDEX
  VSB - VISIBILITY
$$



USA.gov is the U.S. government's official web portal to all federal, state and local government web resources and services.